Location: Campo Claro
(10.4907°N, 66.8285°W)
Time: 20:33:25
(UTC+00:00)

H-2A R/B - Pass Details

Date: 08 December 2021
Orbit: 577 x 654 km, 98.5° (Epoch: 17 January)

Event Time Altitude Azimuth Distance (km) Brightness Sun altitude
Exits shadow 22:55:41 11° 32° (NNE) 1,950 4.1 -12.3°
Maximum altitude 22:59:37 40° 101° (E) 936 2.6 -13.2°
Drops below altitude 10° 23:03:43 10° 171° (S) 2,002 4.8 -14.1°
Sets 23:05:59 0° 178° (S) 2,896 5.8 -14.7°
